Tracking 19634 objects as of 21-May-2019
HD Live streaming from Space Station
objects crossing your sky now

ADEOS 2

Track ADEOS 2 now!
10-day predictions
ADEOS 2 is classified as:


NORAD ID: 27597
Int'l Code: 2002-056A
Perigee: 806.0 km
Apogee: 809.2 km
Inclination: 98.5 °
Period: 100.9 minutes
Semi major axis: 7178 km
RCS: 19.0027 m2 (large)
Launch date: December 14, 2002
Source: Japan (JPN)
Launch site: TANEGASHIMA SPACE CENTER (TNSTA)
aabbcc
Your satellite tracking list
Your tracking list is empty




NASA's NSSDC Master Catalog

Two Line Element Set (TLE):
1 27597U 02056A   19140.52525951 +.00000027 +00000-0 +28114-4 0  9991
2 27597 098.4701 094.2089 0002203 077.0072 283.1355 14.27398018855618
Source of the keplerian elements: AFSPC